Location: Unspecified
(0.0000°N, 0.0000°E)
Time: 01:54:59
(UTC+00:00)

YUBILEINY - Pass Details

Date: 16 December 2017
Orbit: 1478 x 1509 km, 82.5° (Epoch: 22 January)

Event Time Altitude Azimuth Distance (km) Brightness Sun altitude
Rises 04:08:18 0° 219° (SW) 4,621 ? -24.5°
Reaches altitude 10° 04:12:38 10° 238° (WSW) 3,644 ? -23.5°
Enters shadow 04:12:53 11° 240° (WSW) 3,601 ? -23.4°
